IGO3KG VIDP-VOHS

Flight info

Callsign IGO3KG
Flight time N/A
Altitude 37000
Route VIDP/28 AKRIB Z16 BULDI Q23 PEDMA/N0453F380 DCT SUSMA NAMSA8
Aircraft A320/M-SDE3FGHIRWY/LB1

Departure

Time N/A
Airport Indira Gandhi International Airport (VIDP)

Arrival

Time 2026-04-25 16:48
Airport Rajiv Gandhi International Airport (VOHS)
Time Latitude Longitude Altitude Speed Heading
2026-04-25 15:42 23.56514 76.96748 36883 ft 452 kts 179°
2026-04-25 15:42 23.50225 76.97014 36879 ft 452 kts 179°
2026-04-25 15:43 23.43946 76.97283 36884 ft 451 kts 179°
2026-04-25 15:43 23.37708 76.97555 36888 ft 451 kts 179°
2026-04-25 15:44 23.31433 76.97835 36893 ft 451 kts 179°
2026-04-25 15:44 23.25162 76.98110 36895 ft 450 kts 179°
2026-04-25 15:45 23.18899 76.98376 36896 ft 450 kts 180°
2026-04-25 15:45 23.14728 76.98728 36901 ft 451 kts 172°
2026-04-25 15:46 23.06579 77.00788 36900 ft 451 kts 169°
2026-04-25 15:46 23.01501 77.02109 36897 ft 450 kts 169°
2026-04-25 15:47 22.95410 77.03684 36897 ft 449 kts 169°
2026-04-25 15:47 22.89327 77.05249 36891 ft 449 kts 170°
2026-04-25 15:48 22.83255 77.06802 36890 ft 448 kts 170°
2026-04-25 15:48 22.77182 77.08354 36885 ft 447 kts 171°
2026-04-25 15:49 22.71128 77.09909 36879 ft 446 kts 171°
2026-04-25 15:49 22.65118 77.11454 36880 ft 446 kts 171°
2026-04-25 15:50 22.59078 77.12999 36880 ft 445 kts 171°
2026-04-25 15:50 22.53042 77.14544 36878 ft 445 kts 172°
2026-04-25 15:51 22.48037 77.15824 36878 ft 444 kts 172°
2026-04-25 15:51 22.41005 77.17623 36883 ft 444 kts 172°
2026-04-25 15:52 22.35000 77.19157 36887 ft 443 kts 172°
2026-04-25 15:52 22.29007 77.20703 36890 ft 442 kts 173°
2026-04-25 15:53 22.23020 77.22251 36895 ft 442 kts 173°
2026-04-25 15:53 22.17078 77.23784 36903 ft 441 kts 173°
2026-04-25 15:54 22.11111 77.25321 36908 ft 440 kts 174°
2026-04-25 15:54 22.05164 77.26854 36908 ft 439 kts 174°
2026-04-25 15:55 21.99225 77.28379 36913 ft 438 kts 174°
2026-04-25 15:55 21.93294 77.29903 36913 ft 438 kts 174°
2026-04-25 15:56 21.87372 77.31424 36915 ft 437 kts 174°
2026-04-25 15:56 21.81460 77.32934 36919 ft 436 kts 174°
2026-04-25 15:57 21.75555 77.34452 36922 ft 436 kts 174°
2026-04-25 15:57 21.69649 77.35964 36921 ft 435 kts 174°
2026-04-25 15:58 21.63759 77.37465 36925 ft 435 kts 174°
2026-04-25 15:58 21.57864 77.38949 36925 ft 434 kts 175°
2026-04-25 15:59 21.51977 77.40328 36922 ft 432 kts 175°
2026-04-25 15:59 21.46092 77.41682 36919 ft 432 kts 175°
2026-04-25 16:00 21.42203 77.42584 36915 ft 431 kts 175°
2026-04-25 16:00 21.34399 77.44409 36906 ft 431 kts 175°
2026-04-25 16:01 21.28542 77.45775 36901 ft 430 kts 175°
2026-04-25 16:01 21.22698 77.47140 36893 ft 430 kts 175°
2026-04-25 16:02 21.16863 77.48514 36887 ft 429 kts 175°
2026-04-25 16:02 21.11025 77.49873 36883 ft 429 kts 175°
2026-04-25 16:03 21.05199 77.51231 36875 ft 428 kts 175°
2026-04-25 16:03 20.99378 77.52587 36871 ft 428 kts 175°
2026-04-25 16:04 20.93562 77.53941 36872 ft 427 kts 175°
2026-04-25 16:04 20.87750 77.55288 36862 ft 427 kts 176°
2026-04-25 16:05 20.81937 77.56644 36869 ft 427 kts 175°
2026-04-25 16:06 20.73233 77.58706 36870 ft 427 kts 175°
2026-04-25 16:06 20.67430 77.60077 36867 ft 427 kts 175°
2026-04-25 16:07 20.61626 77.61447 36867 ft 426 kts 175°
2026-04-25 16:07 20.55830 77.62811 36867 ft 426 kts 175°
2026-04-25 16:08 20.50075 77.64165 36860 ft 426 kts 175°
2026-04-25 16:08 20.44279 77.65533 36858 ft 426 kts 175°
2026-04-25 16:09 20.38482 77.66894 36870 ft 426 kts 176°
2026-04-25 16:09 20.32682 77.68252 36868 ft 427 kts 176°
2026-04-25 16:10 20.26879 77.69613 36860 ft 427 kts 176°
2026-04-25 16:10 20.21080 77.70964 36861 ft 427 kts 176°
2026-04-25 16:11 20.15271 77.72318 36862 ft 427 kts 175°
2026-04-25 16:11 20.09461 77.73675 36859 ft 427 kts 175°
2026-04-25 16:12 20.03648 77.75036 36868 ft 428 kts 175°
2026-04-25 16:12 19.97833 77.76400 36863 ft 428 kts 175°
2026-04-25 16:13 19.92013 77.77758 36868 ft 428 kts 175°
2026-04-25 16:13 19.86191 77.79119 36861 ft 428 kts 175°
2026-04-25 16:14 19.80372 77.80480 36866 ft 428 kts 175°
2026-04-25 16:14 19.74541 77.81838 36863 ft 429 kts 175°
2026-04-25 16:15 19.68711 77.83186 36867 ft 429 kts 175°
2026-04-25 16:15 19.62876 77.84540 36868 ft 429 kts 175°
2026-04-25 16:16 19.57036 77.85894 36870 ft 429 kts 175°
2026-04-25 16:16 19.51201 77.87252 36873 ft 429 kts 175°
2026-04-25 16:17 19.45362 77.88617 36875 ft 429 kts 175°
2026-04-25 16:17 19.39559 77.89962 36876 ft 429 kts 175°
2026-04-25 16:18 19.33724 77.91306 36877 ft 429 kts 175°
2026-04-25 16:18 19.27894 77.92655 36877 ft 429 kts 174°
2026-04-25 16:19 19.22065 77.94019 36879 ft 429 kts 174°
2026-04-25 16:19 19.16235 77.95380 36879 ft 429 kts 174°
2026-04-25 16:20 19.07492 77.97417 36887 ft 428 kts 174°
2026-04-25 16:21 18.98745 77.98864 36887 ft 416 kts 189°
2026-04-25 16:21 18.93224 77.97571 36885 ft 402 kts 207°
2026-04-25 16:22 18.88124 77.95143 36892 ft 402 kts 208°
2026-04-25 16:22 18.83009 77.92729 36894 ft 402 kts 207°
2026-04-25 16:23 18.77891 77.90322 36899 ft 402 kts 207°
2026-04-25 16:23 18.72773 77.87916 36900 ft 403 kts 207°
2026-04-25 16:24 18.67653 77.85505 36907 ft 403 kts 207°
2026-04-25 16:24 18.63401 77.83493 36910 ft 403 kts 207°
2026-04-25 16:25 18.57445 77.80686 36917 ft 403 kts 207°
2026-04-25 16:25 18.52317 77.78265 36920 ft 404 kts 207°
2026-04-25 16:26 18.48017 77.76239 36928 ft 404 kts 207°
2026-04-25 16:26 18.42864 77.73824 36312 ft 407 kts 207°
2026-04-25 16:26 18.40277 77.72615 35729 ft 407 kts 207°
2026-04-25 16:27 18.37691 77.71405 35166 ft 407 kts 207°
2026-04-25 16:27 18.35130 77.70203 34617 ft 407 kts 207°
2026-04-25 16:27 18.32544 77.68987 34075 ft 406 kts 207°
2026-04-25 16:27 18.29965 77.67774 33479 ft 405 kts 207°
2026-04-25 16:28 18.27394 77.66567 32874 ft 404 kts 207°
2026-04-25 16:28 18.24828 77.65366 32279 ft 403 kts 207°
2026-04-25 16:28 18.22263 77.64169 31690 ft 402 kts 207°
2026-04-25 16:28 18.19707 77.62974 31126 ft 401 kts 207°
2026-04-25 16:29 18.17164 77.61784 30577 ft 400 kts 207°
2026-04-25 16:29 18.14628 77.60595 30024 ft 399 kts 207°
2026-04-25 16:29 18.12096 77.59405 29389 ft 398 kts 207°
2026-04-25 16:29 18.09569 77.58221 28758 ft 397 kts 207°
2026-04-25 16:30 18.07044 77.57037 28145 ft 396 kts 206°
2026-04-25 16:30 18.04526 77.55859 27541 ft 395 kts 206°
2026-04-25 16:30 18.02010 77.54684 26908 ft 395 kts 206°
2026-04-25 16:30 17.99506 77.53513 26331 ft 394 kts 206°
2026-04-25 16:31 17.97007 77.52340 25770 ft 393 kts 206°
2026-04-25 16:31 17.94422 77.51380 25214 ft 396 kts 195°
2026-04-25 16:31 17.91674 77.51057 24678 ft 400 kts 182°
2026-04-25 16:31 17.88916 77.51440 24311 ft 400 kts 168°
2026-04-25 16:32 17.86277 77.52351 24022 ft 397 kts 164°
2026-04-25 16:32 17.83685 77.53298 23746 ft 391 kts 164°
2026-04-25 16:32 17.81129 77.54231 23445 ft 386 kts 163°
2026-04-25 16:32 17.78612 77.55151 23100 ft 381 kts 163°
2026-04-25 16:33 17.76119 77.56059 22767 ft 378 kts 163°
2026-04-25 16:33 17.73639 77.56961 22499 ft 376 kts 163°
2026-04-25 16:33 17.71169 77.57858 22246 ft 375 kts 163°
2026-04-25 16:33 17.68703 77.58753 21997 ft 374 kts 163°
2026-04-25 16:34 17.66272 77.59639 21749 ft 373 kts 163°
2026-04-25 16:34 17.63822 77.60535 21500 ft 372 kts 163°
2026-04-25 16:34 17.61380 77.61429 21259 ft 371 kts 163°
2026-04-25 16:34 17.58941 77.62319 21020 ft 370 kts 163°
2026-04-25 16:35 17.56514 77.63214 20778 ft 369 kts 162°
2026-04-25 16:35 17.54097 77.64123 20543 ft 368 kts 162°
2026-04-25 16:35 17.51691 77.65038 20304 ft 367 kts 162°
2026-04-25 16:35 17.49288 77.65954 20068 ft 366 kts 162°
2026-04-25 16:36 17.46902 77.66862 19797 ft 363 kts 161°
2026-04-25 16:36 17.46099 77.67167 19653 ft 362 kts 161°
2026-04-25 16:36 17.42157 77.68657 18822 ft 363 kts 161°
2026-04-25 16:36 17.39772 77.69555 18301 ft 364 kts 161°
2026-04-25 16:37 17.37386 77.70454 17764 ft 365 kts 161°
2026-04-25 16:37 17.35003 77.71353 17228 ft 364 kts 161°
2026-04-25 16:37 17.32645 77.72241 16985 ft 355 kts 161°
2026-04-25 16:37 17.30368 77.73182 16969 ft 351 kts 152°
2026-04-25 16:38 17.28393 77.74673 16938 ft 351 kts 136°
2026-04-25 16:38 17.26897 77.76703 16174 ft 359 kts 117°
2026-04-25 16:38 17.26108 77.79171 15357 ft 359 kts 98°
2026-04-25 16:38 17.25896 77.81760 14530 ft 356 kts 94°
2026-04-25 16:39 17.25719 77.84326 13783 ft 352 kts 94°
2026-04-25 16:39 17.25529 77.86861 13084 ft 344 kts 94°
2026-04-25 16:39 17.25335 77.89315 12611 ft 331 kts 94°
2026-04-25 16:39 17.25137 77.91709 11638 ft 332 kts 94°
2026-04-25 16:40 17.24933 77.94124 10723 ft 332 kts 95°
2026-04-25 16:40 17.24730 77.96516 10070 ft 325 kts 95°
2026-04-25 16:40 17.24538 77.98753 9891 ft 302 kts 95°
2026-04-25 16:40 17.24352 78.00909 9388 ft 293 kts 95°
2026-04-25 16:41 17.24180 78.02911 8732 ft 293 kts 95°
2026-04-25 16:41 17.24058 78.04338 8317 ft 291 kts 95°
2026-04-25 16:41 17.23636 78.09189 6866 ft 287 kts 95°
2026-04-25 16:42 17.23455 78.11240 6452 ft 278 kts 95°
2026-04-25 16:42 17.23284 78.13190 6267 ft 260 kts 95°
2026-04-25 16:42 17.23127 78.15005 6152 ft 241 kts 96°
2026-04-25 16:42 17.22982 78.16685 6055 ft 223 kts 96°
2026-04-25 16:43 17.22846 78.18242 5952 ft 210 kts 97°
2026-04-25 16:43 17.22651 78.19743 5774 ft 207 kts 95°
2026-04-25 16:43 17.22586 78.21237 5538 ft 205 kts 91°
2026-04-25 16:43 17.22591 78.22723 5288 ft 204 kts 90°
2026-04-25 16:44 17.22612 78.24160 5072 ft 191 kts 90°
2026-04-25 16:44 17.22632 78.25514 4821 ft 181 kts 90°
2026-04-25 16:44 17.22651 78.26795 4591 ft 171 kts 91°
2026-04-25 16:44 17.22668 78.27990 4381 ft 158 kts 91°
2026-04-25 16:45 17.22685 78.29102 4198 ft 148 kts 91°
2026-04-25 16:45 17.22700 78.30158 4024 ft 143 kts 92°
2026-04-25 16:45 17.22714 78.31189 3846 ft 141 kts 92°
2026-04-25 16:45 17.22729 78.32210 3673 ft 139 kts 92°
2026-04-25 16:46 17.22744 78.33216 3503 ft 138 kts 92°
2026-04-25 16:46 17.22758 78.34220 3330 ft 138 kts 92°
2026-04-25 16:46 17.22774 78.35220 3160 ft 137 kts 93°
2026-04-25 16:46 17.22778 78.35558 3103 ft 138 kts 92°
2026-04-25 16:47 17.22801 78.37215 2806 ft 137 kts 92°
2026-04-25 16:47 17.22812 78.38216 2590 ft 138 kts 91°
2026-04-25 16:47 17.22836 78.39225 2398 ft 139 kts 92°
2026-04-25 16:47 17.22845 78.40244 2209 ft 141 kts 91°
2026-04-25 16:48 17.22857 78.41271 2037 ft 142 kts 91°
2026-04-25 16:48 17.22862 78.42239 1980 ft 118 kts 88°
2026-04-25 16:48 17.22876 78.42929 1980 ft 70 kts 89°
2026-04-25 16:48 17.22882 78.43260 1981 ft 22 kts 88°
2026-04-25 16:49 17.22926 78.43416 1981 ft 23 kts 62°
2026-04-25 16:49 17.23014 78.43565 1983 ft 25 kts 59°
2026-04-25 16:49 17.23089 78.43688 1980 ft 13 kts 45°
2026-04-25 16:49 17.23184 78.43698 1982 ft 15 kts 359°
2026-04-25 16:50 17.23298 78.43697 1980 ft 18 kts 359°
2026-04-25 16:50 17.23343 78.43697 1981 ft 1 kts 359°
2026-04-25 16:50 17.23354 78.43696 1981 ft 3 kts 359°
2026-04-25 16:50 17.23381 78.43696 1980 ft 5 kts 359°
2026-04-25 16:51 17.23423 78.43695 1981 ft 7 kts 358°
2026-04-25 16:51 17.23481 78.43694 1980 ft 10 kts 359°
2026-04-25 16:51 17.23555 78.43693 1982 ft 12 kts 359°
2026-04-25 16:51 17.23583 78.43692 1980 ft 13 kts 359°
2026-04-25 16:52 17.23650 78.43661 1980 ft 6 kts 284°
2026-04-25 16:52 17.23682 78.43638 1981 ft 7 kts 329°
2026-04-25 16:52 17.23702 78.43590 1980 ft 9 kts 271°
2026-04-25 16:52 17.23702 78.43519 1980 ft 11 kts 270°
2026-04-25 16:53 17.23705 78.43443 1983 ft 0 kts 299°